• Join FlightAware (Why Join?)
  • Login
  • US Flag 
02:09AM EST


 

Airport Tracker/Info


-or-


 

Live Flight TrackerFlight Track Log ✈ FLG3735 ✈ 28-Dec-2013 ✈ KMDW - KMSP

Flight Track Log - Related Links

Times and Time Zones

All times are in EST time to prevent confusion due to time zone crossing. See the FLG3735 flight status page for this flight to view local times or setup timezone preferences in your user account.

Time Position Orientation Groundspeed Altitude Reporting Facility
EST Latitude Longitude Course Direction KTS MPH feet Rate Location/Type
01:25PM 41.7992 -87.8003 266° West 130 150 3,000  Level Chicago Center
01:26PM 41.7764 -87.8592 243° Southwest 170 196 4,900 2,129 Climbing Chicago Center
01:27PM 41.7636 -87.9436 259° West 233 268 7,400 2,468 Climbing Chicago Center
01:28PM 41.7589 -88.0372 266° West 251 289 10,000 2,419 Climbing Chicago Center
01:29PM 41.7983 -88.1086 307° West 284 327 12,400 2,032 Climbing Chicago Center
01:30PM 41.9039 -88.1061 North 315 362 14,200 1,452 Climbing Chicago Center
01:31PM 42.0056 -88.0994 North 357 411 15,400 1,415 Climbing Chicago Center
01:32PM 42.1100 -88.0931 North 372 428 17,100 1,366 Climbing Chicago Center
01:33PM 42.2158 -88.0883 North 380 437 18,200 1,161 Climbing Chicago Center
01:34PM 42.3219 -88.1072 353° North 387 445 19,500 1,113 Climbing Chicago Center
01:35PM 42.4289 -88.1319 350° North 395 455 20,500 1,016 Climbing Chicago Center
01:36PM 42.5619 -88.1608 351° North 404 465 21,600 1,113 Climbing Chicago Center
01:37PM 42.6758 -88.1872 350° North 412 474 22,800 976 Climbing Chicago Center
01:38PM 42.7883 -88.2117 351° North 411 473 23,600 829 Climbing Chicago Center
01:40PM 42.9014 -88.2367 351° North 412 474 24,500 871 Climbing Chicago Center
01:41PM 42.9836 -88.3358 319° Northwest 395 455 25,400 726 Climbing Chicago Center
01:42PM 43.0578 -88.4433 313° West 389 448 26,000 290 Climbing Chicago Center
01:43PM 43.1353 -88.5556 313° West 400 460 26,000  Level Chicago Center
01:44PM 43.2306 -88.6964 313° West 413 475 26,000  Level Chicago Center
01:45PM 43.3136 -88.8161 314° West 425 489 26,000  Level Chicago Center
01:46PM 43.3953 -88.9361 313° West 426 490 26,000  Level Chicago Center
01:47PM 43.4769 -89.0561 313° West 427 491 26,000  Level Chicago Center
01:48PM 43.5581 -89.1767 313° West 429 494 26,000  Level Chicago Center
01:49PM 43.6386 -89.2975 313° West 427 491 26,000  Level Chicago Center
01:50PM 43.7197 -89.4186 313° West 429 494 26,000  Level Chicago Center
01:51PM 43.8008 -89.5397 313° West 430 495 26,000  Level Chicago Center
01:52PM 43.8811 -89.6608 313° West 428 493 26,000  Level Chicago Center
01:53PM 43.9772 -89.8083 312° West 429 494 26,000  Level Chicago Center
01:54PM 44.0572 -89.9306 312° West 430 495 26,000  Level Chicago Center
01:55PM 44.1264 -90.0622 306° West 425 489 26,000  Level Chicago Center
01:56PM 44.1861 -90.2017 301° West 419 482 26,000  Level Chicago Center
01:57PM 44.2519 -90.3567 301° West 424 488 26,000  Level Chicago Center
01:58PM 44.3119 -90.4958 301° West 424 488 26,000  Level Chicago Center
01:59PM 44.3717 -90.6364 301° West 424 488 26,000  Level Chicago Center
02:00PM 44.4306 -90.7767 300° West 424 488 26,000  Level Chicago Center
02:01PM 44.4892 -90.9183 300° West 424 488 26,000 -435 Level Chicago Center
02:02PM 44.5603 -91.0861 301° West 422 486 25,100 -1,268 Descending Chicago Center
02:03PM 44.6181 -91.2275 300° West 421 484 23,400 -1,582 Descending Chicago Center
02:04PM 44.6433 -91.2867 301° West 422 486 22,700 -1,565 Descending Minneapolis Center
02:05PM 44.7000 -91.4208 301° West 408 470 21,000 -1,597 Descending Minneapolis Center
02:06PM 44.7544 -91.5533 300° West 398 458 19,400 -1,790 Descending Minneapolis Center
02:07PM 44.8194 -91.7128 300° West 394 453 17,300 -1,839 Descending Minneapolis Center
02:08PM 44.8714 -91.8425 300° West 386 444 15,600 -1,500 Descending Minneapolis Center
02:09PM 44.9228 -91.9689 300° West 374 430 14,200 -1,403 Descending Minneapolis Center
02:10PM 44.9717 -92.0928 299° West 364 419 12,700 -1,463 Descending Minneapolis Center
02:11PM 45.0206 -92.2139 300° West 358 412 11,200 -829 Descending Minneapolis Center
02:12PM 45.0400 -92.3397 282° West 343 395 11,000 -97 Descending Minneapolis Center
02:13PM 45.0156 -92.4975 258° West 343 395 11,000  Level Minneapolis Center
02:14PM 44.9950 -92.6297 258° West 345 397 11,000  Level Minneapolis Center
02:15PM 44.9742 -92.7628 258° West 349 402 11,000 -242 Level Minneapolis Center
02:16PM 44.9539 -92.8894 257° West 331 381 10,500 -774 Descending Minneapolis Center
02:17PM 44.9378 -92.9917 257° West 272 313 9,400 -1,220 Descending Minneapolis Center
02:18PM 44.9456 -93.0997 276° West 253 291 8,000 -1,122 Descending Minneapolis Center
02:19PM 44.9814 -93.1703 306° West 223 257 7,100 -1,210 Descending Minneapolis Center
02:20PM 45.0183 -93.2350 309° West 214 246 5,500 -1,065 Descending Minneapolis Center
02:21PM 45.0567 -93.2994 310° West 215 247 4,900 -726 Descending Minneapolis Center
02:22PM 45.0772 -93.3686 293° West 207 238 4,000 -435 Descending Minneapolis Center
02:23PM 45.0278 -93.3867 194° South 205 236 4,000 -488 Level Minneapolis Center
02:24PM 44.9686 -93.3286 145° Southeast 212 244 3,000 -829 Descending Minneapolis Center
02:25PM 44.9314 -93.2897 144° Southeast 173 199 2,300 -726 Descending Minneapolis Center
02:26PM 44.9058 -93.2506 133° Southeast 141 162 1,500 -774 Descending Minneapolis Center
02:28PM 44.8820 -93.2218 166° South  Level Estimated
02:35PM 44.8820 -93.2218 166° South  Level Estimated